Previsão horária em Plop

Hoje, 4 Março, Quinta-feira

Tempo Temperatura Precipitação Vento Pressão Humidade
00:00 +3°C° 0 mm 2 m/s 751 mmHg 84%
01:00 +3°C° 0 mm 2 m/s 751 mmHg 85%
02:00 +2°C° 0 mm 2 m/s 750 mmHg 86%
03:00 +2°C° 0 mm 2 m/s 749 mmHg 87%
04:00 +2°C° 0 mm 2 m/s 749 mmHg 87%
05:00 +2°C° 0 mm 2 m/s 748 mmHg 88%
06:00 +2°C° 0 mm 2 m/s 747 mmHg 87%
07:00 +2°C° 0 mm 2 m/s 747 mmHg 85%
08:00 +3°C° 0 mm 2 m/s 747 mmHg 84%
09:00 +4°C° 0 mm 2 m/s 746 mmHg 76%
10:00 +6°C° 0 mm 2 m/s 746 mmHg 68%
11:00 +8°C° 0 mm 2 m/s 745 mmHg 60%
12:00 +9°C° 0 mm 3 m/s 745 mmHg 54%
13:00 +11°C° 0 mm 4 m/s 744 mmHg 49%
14:00 +12°C° 0 mm 4 m/s 743 mmHg 43%
15:00 +12°C° 0 mm 4 m/s 743 mmHg 46%
16:00 +11°C° 0 mm 3 m/s 743 mmHg 49%
17:00 +12°C° 0 mm 2 m/s 742 mmHg 51%
18:00 +10°C° 0 mm 2 m/s 742 mmHg 54%
19:00 +9°C° 0 mm 2 m/s 742 mmHg 57%
20:00 +8°C° 0 mm 2 m/s 742 mmHg 59%
21:00 +7°C° 0 mm 2 m/s 742 mmHg 62%
22:00 +7°C° 0 mm 2 m/s 742 mmHg 65%
23:00 +6°C° 0 mm 2 m/s 742 mmHg 68%

Amanhã, 5 Março, Sexta-feira

Tempo Temperatura Precipitação Vento Pressão Humidade
00:00 +6°C° 0 mm 2 m/s 742 mmHg 71%
01:00 +6°C° 0 mm 2 m/s 742 mmHg 74%
02:00 +6°C° 0 mm 2 m/s 742 mmHg 76%
03:00 +5°C° 0.1 mm 2 m/s 742 mmHg 80%
04:00 +5°C° 0.1 mm 2 m/s 741 mmHg 83%
05:00 +6°C° 0.1 mm 1 m/s 741 mmHg 87%
06:00 +5°C° 0 mm 2 m/s 741 mmHg 85%
07:00 +5°C° 0 mm 2 m/s 741 mmHg 82%
08:00 +5°C° 0 mm 3 m/s 740 mmHg 80%
09:00 +5°C° 0 mm 3 m/s 741 mmHg 78%
10:00 +7°C° 0 mm 3 m/s 741 mmHg 75%
11:00 +7°C° 0 mm 4 m/s 741 mmHg 73%
12:00 +6°C° 0.1 mm 5 m/s 741 mmHg 79%
13:00 +3°C° 0.1 mm 5 m/s 741 mmHg 86%
14:00 +2°C° 0.1 mm 6 m/s 742 mmHg 92%
15:00 +1°C° 0 mm 6 m/s 742 mmHg 89%
16:00 +1°C° 0 mm 6 m/s 743 mmHg 86%
17:00 +1°C° 0 mm 5 m/s 744 mmHg 83%
18:00 +1°C° 0 mm 5 m/s 745 mmHg 79%
19:00 0°C° 0 mm 5 m/s 746 mmHg 75%
20:00 0°C° 0 mm 4 m/s 746 mmHg 71%
21:00 -1°C° 0 mm 4 m/s 747 mmHg 70%
22:00 -1°C° 0 mm 4 m/s 748 mmHg 69%
23:00 -2°C° 0 mm 4 m/s 748 mmHg 68%

Depois de amanhã, 6 Março, Sábado

Tempo Temperatura Precipitação Vento Pressão Humidade
00:00 -2°C° 0 mm 4 m/s 749 mmHg 67%
01:00 -2°C° 0 mm 4 m/s 749 mmHg 65%
02:00 -2°C° 0 mm 4 m/s 749 mmHg 63%
03:00 -2°C° 0 mm 4 m/s 750 mmHg 63%
04:00 -3°C° 0 mm 4 m/s 750 mmHg 64%
05:00 -3°C° 0 mm 4 m/s 750 mmHg 64%
06:00 -3°C° 0 mm 4 m/s 751 mmHg 60%
07:00 -4°C° 0 mm 5 m/s 751 mmHg 56%
08:00 -4°C° 0 mm 5 m/s 752 mmHg 53%
09:00 -2°C° 0 mm 5 m/s 752 mmHg 46%
10:00 -2°C° 0 mm 5 m/s 752 mmHg 39%
11:00 -1°C° 0 mm 5 m/s 753 mmHg 32%
12:00 0°C° 0 mm 5 m/s 753 mmHg 32%
13:00 0°C° 0 mm 5 m/s 753 mmHg 32%
14:00 -1°C° 0 mm 6 m/s 753 mmHg 31%
15:00 -1°C° 0 mm 6 m/s 753 mmHg 34%
16:00 0°C° 0 mm 5 m/s 753 mmHg 36%
17:00 0°C° 0 mm 5 m/s 753 mmHg 38%
18:00 -1°C° 0 mm 4 m/s 753 mmHg 44%
19:00 -1°C° 0 mm 3 m/s 754 mmHg 50%
20:00 -2°C° 0 mm 2 m/s 754 mmHg 56%
21:00 -2°C° 0 mm 2 m/s 754 mmHg 56%
22:00 -2°C° 0 mm 2 m/s 755 mmHg 57%
23:00 -2°C° 0 mm 2 m/s 755 mmHg 58%

7 Março, Domingo

Tempo Temperatura Precipitação Vento Pressão Humidade
00:00 -2°C° 0 mm 3 m/s 755 mmHg 59%
01:00 -2°C° 0 mm 3 m/s 754 mmHg 60%
02:00 -2°C° 0 mm 3 m/s 754 mmHg 61%
03:00 -2°C° 0 mm 3 m/s 754 mmHg 62%
04:00 -4°C° 0 mm 3 m/s 753 mmHg 62%
05:00 -4°C° 0 mm 3 m/s 753 mmHg 63%
06:00 -2°C° 0 mm 3 m/s 753 mmHg 59%
07:00 -3°C° 0 mm 4 m/s 752 mmHg 56%
08:00 -3°C° 0 mm 4 m/s 752 mmHg 52%
09:00 -2°C° 0 mm 5 m/s 751 mmHg 48%
10:00 0°C° 0 mm 5 m/s 751 mmHg 43%
11:00 +1°C° 0 mm 5 m/s 750 mmHg 39%
12:00 +2°C° 0 mm 5 m/s 750 mmHg 38%
13:00 +2°C° 0 mm 5 m/s 749 mmHg 37%
14:00 +3°C° 0 mm 5 m/s 748 mmHg 36%
15:00 +3°C° 0 mm 5 m/s 748 mmHg 38%
16:00 +4°C° 0 mm 4 m/s 747 mmHg 41%
17:00 +4°C° 0 mm 3 m/s 746 mmHg 43%
18:00 +3°C° 0 mm 3 m/s 746 mmHg 47%
19:00 +3°C° 0 mm 2 m/s 747 mmHg 52%
20:00 +2°C° 0 mm 2 m/s 747 mmHg 56%
21:00 +1°C° 0 mm 2 m/s 747 mmHg 59%
22:00 +1°C° 0 mm 2 m/s 746 mmHg 62%
23:00 +1°C° 0 mm 2 m/s 746 mmHg 65%

8 Março, Segunda-feira

Tempo Temperatura Precipitação Vento Pressão Humidade
00:00 -1°C° 0 mm 3 m/s 746 mmHg 65%
01:00 -1°C° 0 mm 3 m/s 746 mmHg 64%
02:00 -1°C° 0 mm 3 m/s 746 mmHg 64%
03:00 -1°C° 0 mm 3 m/s 746 mmHg 64%
04:00 -1°C° 0 mm 3 m/s 745 mmHg 65%
05:00 -1°C° 0 mm 3 m/s 745 mmHg 65%
06:00 -1°C° 0 mm 3 m/s 745 mmHg 63%
07:00 -2°C° 0 mm 4 m/s 745 mmHg 61%
08:00 -1°C° 0 mm 4 m/s 746 mmHg 59%
09:00 0°C° 0 mm 5 m/s 746 mmHg 59%
10:00 +1°C° 0 mm 6 m/s 746 mmHg 58%
11:00 0°C° 0 mm 7 m/s 746 mmHg 57%
12:00 +2°C° 0 mm 6 m/s 746 mmHg 58%
13:00 +2°C° 0 mm 6 m/s 746 mmHg 58%
14:00 +2°C° 0 mm 6 m/s 746 mmHg 59%
15:00 +2°C° 0 mm 6 m/s 746 mmHg 60%
16:00 +1°C° 0 mm 5 m/s 746 mmHg 60%
17:00 +1°C° 0 mm 5 m/s 746 mmHg 61%
18:00 0°C° 0 mm 4 m/s 746 mmHg 63%
19:00 -1°C° 0 mm 4 m/s 747 mmHg 65%
20:00 -1°C° 0 mm 3 m/s 748 mmHg 66%
21:00 -1°C° 0 mm 3 m/s 748 mmHg 66%
22:00 -2°C° 0 mm 3 m/s 749 mmHg 65%
23:00 -2°C° 0 mm 3 m/s 749 mmHg 65%

9 Março, Terça-feira

Tempo Temperatura Precipitação Vento Pressão Humidade
00:00 -2°C° 0 mm 3 m/s 749 mmHg 64%
01:00 -4°C° 0 mm 3 m/s 750 mmHg 62%
02:00 -4°C° 0 mm 3 m/s 750 mmHg 61%
03:00 -4°C° 0 mm 3 m/s 750 mmHg 61%
04:00 -5°C° 0 mm 3 m/s 750 mmHg 60%
05:00 -5°C° 0 mm 3 m/s 751 mmHg 59%
06:00 -5°C° 0 mm 3 m/s 751 mmHg 57%
07:00 -5°C° 0 mm 3 m/s 751 mmHg 55%
08:00 -5°C° 0 mm 3 m/s 752 mmHg 54%
09:00 -4°C° 0 mm 3 m/s 752 mmHg 48%
10:00 -4°C° 0 mm 3 m/s 752 mmHg 43%
11:00 -2°C° 0 mm 3 m/s 752 mmHg 38%
12:00 -2°C° 0 mm 2 m/s 752 mmHg 36%
13:00 -1°C° 0 mm 2 m/s 752 mmHg 34%
14:00 -1°C° 0 mm 2 m/s 752 mmHg 32%
15:00 -1°C° 0 mm 2 m/s 752 mmHg 33%
16:00 -1°C° 0 mm 2 m/s 752 mmHg 34%
17:00 -1°C° 0 mm 2 m/s 752 mmHg 34%
18:00 -2°C° 0 mm 2 m/s 752 mmHg 38%
19:00 -2°C° 0 mm 2 m/s 752 mmHg 42%
20:00 -4°C° 0 mm 3 m/s 753 mmHg 46%
21:00 -4°C° 0 mm 3 m/s 753 mmHg 46%
22:00 -4°C° 0 mm 4 m/s 753 mmHg 46%
23:00 -4°C° 0 mm 4 m/s 754 mmHg 46%
Mostrar mais

Necessitamos do seu Consentimento

A Meteoprog e os seus Fornecedores de Serviços podem armazenar e aceder a dados pessoais como cookies, identificadores do dispositivo ou outras tecnologias semelhantes existentes no seu dispositivo e processar estes dados para personalizar conteúdos e anúncios, assim como funcionalidades nas redes sociais e análise de tráfego.

  • Armazenar e/ou aceder a informações no seu dispositivo

    Os cookies, identificadores do dispositivo ou outras informações podem ser armazenados ou acedidos no seu dispositivo, para os fins acima indicados.

  • Anúncios e conteúdos personalizados, medição de anúncios e conteúdos, dados sobre o público-alvo e desenvolvimento de produtos

    Os anúncios e os conteúdos podem ser personalizados com base num perfil. Podem ser adicionados dados adicionais para uma maior personalização dos anúncios e dos conteúdos. A eficácia dos anúncios e dos conteúdos pode ser medida. Podem ser obtidas informações sobre o público que visualizou os anúncios e os conteúdos. Estes dados podem ser usados para desenvolver ou melhorar sistemas, softwares ou a experiência do utilizador.

Ao clicar em "Eu concordo”, permitirá o uso de cookies, identificadores do dispositivo e web beacons mencionados ou outras tecnologias semelhantes. As configurações do navegador do seu dispositivo podem ser alteradas.

Para certos fins, podem ser invocados interesses legítimos ao invés de consentimento. Pode ler mais informação sobre este assunto na nossa Política de Privacidade e Cookies.